When you browse on this site, cookies collect data to enhance your experience and personalize the content and advertising you see.
Visit our Privacy Policy to learn more. By continuing to use the site, you agree to this use of cookies and data.
  • In Hungary
  • List of Countries
  • For 7 days
  • Water Temperature
  • Satellite Maps
  • Weather Map
  • News
  • Weather Widgets
  • user-avatar
    Login

    Hourly Weather Petershagen

    Today, 23 February, Saturday

    Time Temperature Precipitation Wind Pressure Humidity
    00:00 +2°C° 0 mm 3 mps 777 mmHg 80%
    01:00 +2°C° 0 mm 3 mps 777 mmHg 80%
    02:00 +1°C° 0 mm 3 mps 776 mmHg 81%
    03:00 +1°C° 0 mm 3 mps 776 mmHg 81%
    04:00 +1°C° 0 mm 2 mps 776 mmHg 82%
    05:00 +1°C° 0 mm 2 mps 776 mmHg 80%
    06:00 +1°C° 0 mm 2 mps 776 mmHg 79%
    07:00 -1°C° 0 mm 2 mps 776 mmHg 78%
    08:00 +1°C° 0 mm 2 mps 776 mmHg 70%
    09:00 +2°C° 0 mm 3 mps 776 mmHg 62%
    10:00 +3°C° 0 mm 3 mps 776 mmHg 55%
    11:00 +4°C° 0 mm 3 mps 776 mmHg 49%
    12:00 +7°C° 0 mm 3 mps 776 mmHg 44%
    13:00 +8°C° 0 mm 3 mps 775 mmHg 38%
    14:00 +9°C° 0 mm 3 mps 775 mmHg 39%
    15:00 +9°C° 0 mm 3 mps 775 mmHg 40%
    16:00 +9°C° 0 mm 3 mps 775 mmHg 40%
    17:00 +8°C° 0 mm 3 mps 775 mmHg 44%
    18:00 +7°C° 0 mm 2 mps 775 mmHg 47%
    19:00 +5°C° 0 mm 2 mps 775 mmHg 50%
    20:00 +5°C° 0 mm 2 mps 775 mmHg 51%
    21:00 +5°C° 0 mm 2 mps 775 mmHg 52%
    22:00 +4°C° 0 mm 2 mps 775 mmHg 52%
    23:00 +4°C° 0 mm 2 mps 775 mmHg 51%

    Tomorrow, 24 February, Sunday

    Time Temperature Precipitation Wind Pressure Humidity
    00:00 +4°C° 0 mm 2 mps 775 mmHg 50%
    01:00 +4°C° 0 mm 2 mps 775 mmHg 49%
    02:00 +3°C° 0 mm 2 mps 775 mmHg 48%
    03:00 +4°C° 0 mm 1 mps 775 mmHg 47%
    04:00 +4°C° 0 mm 1 mps 775 mmHg 46%
    05:00 +4°C° 0 mm 1 mps 775 mmHg 45%
    06:00 +4°C° 0 mm 1 mps 775 mmHg 44%
    07:00 +3°C° 0 mm 1 mps 775 mmHg 43%
    08:00 +5°C° 0 mm 1 mps 775 mmHg 41%
    09:00 +6°C° 0 mm 1 mps 775 mmHg 39%
    10:00 +8°C° 0 mm 1 mps 776 mmHg 36%
    11:00 +9°C° 0 mm 1 mps 776 mmHg 34%
    12:00 +10°C° 0 mm 1 mps 776 mmHg 31%
    13:00 +12°C° 0 mm 1 mps 775 mmHg 28%
    14:00 +12°C° 0 mm 1 mps 775 mmHg 30%
    15:00 +13°C° 0 mm 1 mps 775 mmHg 31%
    16:00 +13°C° 0 mm 1 mps 775 mmHg 33%
    17:00 +12°C° 0 mm 1 mps 775 mmHg 36%
    18:00 +10°C° 0 mm 1 mps 775 mmHg 39%
    19:00 +8°C° 0 mm 1 mps 775 mmHg 42%
    20:00 +8°C° 0 mm 1 mps 776 mmHg 43%
    21:00 +8°C° 0 mm 1 mps 776 mmHg 44%
    22:00 +7°C° 0 mm 1 mps 776 mmHg 45%
    23:00 +7°C° 0 mm 1 mps 776 mmHg 46%

    Day after tomorrow, 25 February, Monday

    Time Temperature Precipitation Wind Pressure Humidity
    00:00 +7°C° 0 mm 1 mps 776 mmHg 47%
    01:00 +7°C° 0 mm 1 mps 776 mmHg 47%
    02:00 +6°C° 0 mm 1 mps 776 mmHg 48%
    03:00 +6°C° 0 mm 1 mps 776 mmHg 49%
    04:00 +6°C° 0 mm 1 mps 776 mmHg 50%
    05:00 +6°C° 0 mm 1 mps 776 mmHg 51%
    06:00 +6°C° 0 mm 1 mps 776 mmHg 52%
    07:00 +5°C° 0 mm 1 mps 776 mmHg 54%
    08:00 +6°C° 0 mm 0 mps 776 mmHg 52%
    09:00 +7°C° 0 mm 0 mps 776 mmHg 50%
    10:00 +9°C° 0 mm 0 mps 777 mmHg 48%
    11:00 +11°C° 0 mm 0 mps 776 mmHg 45%
    12:00 +12°C° 0 mm 0 mps 776 mmHg 42%
    13:00 +14°C° 0 mm 0 mps 776 mmHg 40%
    14:00 +14°C° 0 mm 0 mps 776 mmHg 41%
    15:00 +14°C° 0 mm 0 mps 775 mmHg 42%
    16:00 +15°C° 0 mm 0 mps 775 mmHg 44%
    17:00 +13°C° 0 mm 0 mps 775 mmHg 48%
    18:00 +11°C° 0 mm 0 mps 775 mmHg 52%
    19:00 +10°C° 0 mm 0 mps 775 mmHg 56%
    20:00 +10°C° 0 mm 1 mps 775 mmHg 58%
    21:00 +9°C° 0 mm 1 mps 775 mmHg 60%
    22:00 +9°C° 0 mm 1 mps 775 mmHg 62%
    23:00 +9°C° 0 mm 1 mps 775 mmHg 62%

    26 February, Tuesday

    Time Temperature Precipitation Wind Pressure Humidity
    00:00 +8°C° 0 mm 1 mps 775 mmHg 62%
    01:00 +8°C° 0 mm 1 mps 775 mmHg 63%
    02:00 +8°C° 0 mm 1 mps 774 mmHg 63%
    03:00 +8°C° 0 mm 1 mps 774 mmHg 64%
    04:00 +8°C° 0 mm 1 mps 774 mmHg 65%
    05:00 +7°C° 0 mm 1 mps 773 mmHg 66%
    06:00 +6°C° 0 mm 0 mps 773 mmHg 67%
    07:00 +6°C° 0 mm 0 mps 773 mmHg 68%
    08:00 +7°C° 0 mm 0 mps 773 mmHg 64%
    09:00 +9°C° 0 mm 0 mps 773 mmHg 59%
    10:00 +11°C° 0 mm 1 mps 773 mmHg 55%
    11:00 +12°C° 0 mm 0 mps 773 mmHg 52%
    12:00 +13°C° 0 mm 0 mps 773 mmHg 48%
    13:00 +15°C° 0 mm 0 mps 773 mmHg 44%
    14:00 +15°C° 0 mm 0 mps 773 mmHg 45%
    15:00 +15°C° 0 mm 0 mps 772 mmHg 46%
    16:00 +15°C° 0 mm 0 mps 772 mmHg 46%
    17:00 +14°C° 0 mm 0 mps 772 mmHg 51%
    18:00 +13°C° 0 mm 1 mps 772 mmHg 57%
    19:00 +11°C° 0 mm 1 mps 772 mmHg 62%
    20:00 +11°C° 0 mm 1 mps 772 mmHg 63%
    21:00 +10°C° 0 mm 1 mps 771 mmHg 64%
    22:00 +10°C° 0 mm 1 mps 771 mmHg 65%
    23:00 +10°C° 0 mm 1 mps 771 mmHg 65%

    27 February, Wednesday

    Time Temperature Precipitation Wind Pressure Humidity
    00:00 +9°C° 0 mm 1 mps 771 mmHg 65%
    01:00 +9°C° 0 mm 1 mps 770 mmHg 65%
    02:00 +9°C° 0 mm 1 mps 770 mmHg 66%
    03:00 +8°C° 0 mm 1 mps 770 mmHg 66%
    04:00 +7°C° 0 mm 2 mps 769 mmHg 67%
    05:00 +8°C° 0 mm 1 mps 769 mmHg 67%
    06:00 +7°C° 0 mm 1 mps 769 mmHg 68%
    07:00 +7°C° 0 mm 1 mps 768 mmHg 68%
    08:00 +9°C° 0 mm 1 mps 768 mmHg 64%
    09:00 +10°C° 0 mm 1 mps 768 mmHg 61%
    10:00 +11°C° 0 mm 1 mps 768 mmHg 57%
    11:00 +12°C° 0 mm 2 mps 767 mmHg 54%
    12:00 +13°C° 0 mm 2 mps 767 mmHg 50%
    13:00 +14°C° 0 mm 3 mps 767 mmHg 46%
    14:00 +14°C° 0 mm 3 mps 766 mmHg 48%
    15:00 +14°C° 0 mm 3 mps 765 mmHg 49%
    16:00 +14°C° 0 mm 4 mps 765 mmHg 51%
    17:00 +12°C° 0 mm 3 mps 765 mmHg 57%
    18:00 +10°C° 0 mm 3 mps 765 mmHg 64%
    19:00 +9°C° 0 mm 3 mps 765 mmHg 71%
    20:00 +8°C° 0 mm 3 mps 764 mmHg 76%
    21:00 +7°C° 0 mm 3 mps 764 mmHg 81%
    22:00 +7°C° 0 mm 2 mps 764 mmHg 86%
    23:00 +6°C° 0 mm 2 mps 764 mmHg 88%

    28 February, Thursday

    Time Temperature Precipitation Wind Pressure Humidity
    00:00 +6°C° 0 mm 2 mps 764 mmHg 90%
    01:00 +5°C° 0 mm 2 mps 764 mmHg 92%
    02:00 +5°C° 0 mm 2 mps 764 mmHg 93%
    03:00 +5°C° 0 mm 2 mps 763 mmHg 93%
    04:00 +4°C° 0 mm 2 mps 763 mmHg 94%
    05:00 +4°C° 0 mm 2 mps 763 mmHg 94%
    06:00 +3°C° 0 mm 2 mps 763 mmHg 95%
    07:00 +3°C° 0 mm 2 mps 763 mmHg 95%
    08:00 +4°C° 0 mm 2 mps 763 mmHg 91%
    09:00 +5°C° 0 mm 2 mps 764 mmHg 86%
    10:00 +6°C° 0 mm 2 mps 764 mmHg 82%
    11:00 +7°C° 0 mm 2 mps 763 mmHg 76%
    12:00 +9°C° 0 mm 3 mps 763 mmHg 70%
    13:00 +10°C° 0 mm 3 mps 763 mmHg 63%
    14:00 +10°C° 0 mm 3 mps 763 mmHg 61%
    15:00 +10°C° 0 mm 4 mps 763 mmHg 59%
    16:00 +10°C° 0 mm 4 mps 762 mmHg 57%
    17:00 +8°C° 0 mm 4 mps 763 mmHg 63%
    18:00 +7°C° 0 mm 3 mps 763 mmHg 68%
    19:00 +5°C° 0 mm 3 mps 763 mmHg 74%
    20:00 +4°C° 0 mm 3 mps 763 mmHg 79%
    21:00 +4°C° 0 mm 2 mps 763 mmHg 84%
    22:00 +3°C° 0 mm 2 mps 764 mmHg 89%
    23:00 +3°C° 0 mm 2 mps 764 mmHg 91%
    Show more